Change the Weather History Date:

Thursday, November 21, 2013

  Actual Average Record
Temperature  
Mean Temperature 84 °F -  
Max Temperature 94 °F 89 °F 95 °F (2014)
Min Temperature 74 °F 72 °F 71 °F (2002)
Cooling Degree Days 19    
Growing Degree Days 34 (Base 50)    
Moisture  
Dew Point 75 °F    
Average Humidity 80    
Maximum Humidity 94    
Minimum Humidity 46    
Precipitation  
Precipitation 0.00 in 0.03 in - ()
Sea Level Pressure  
Sea Level Pressure 29.89 in    
Wind  
Wind Speed 4 mph ()    
Max Wind Speed 6 mph    
Max Gust Speed -    
Visibility 8.6 miles    
Events      
Averages and records for this station are not official NWS values.
T = Trace of Precipitation, MM = Missing Value Source: Averaged Metar Reports

Daily Weather History Graph

Daily Weather History Graph

Search for Another Location

Airport or City:

Trip Planner

Search our weather history database for the weather conditions in past years. The results will help you decide how hot, cold, wet, or windy it might be!

Date:

Astronomy

Nov. 21, 2013 Rise Set
Actual Time 6:46 AM CST 6:03 PM CST
Civil Twilight 6:23 AM CST 6:26 PM CST
Nautical Twilight 5:57 AM CST 6:52 PM CST
Astronomical Twilight 5:30 AM CST 7:19 PM CST
Moon 9:36 PM CST (11/21) 9:57 AM CST (11/21)
Length of Visible Light 12h 03m
Length of Day
11h 17m
Waning Gibbous, 85% of the Moon is Illuminated
Nov 21
Waning Gibbous
Nov 25
Last Quarter
Dec 2
New
Dec 9
First Quarter
Dec 17
Full

Hourly Weather History & Observations

Time (CST) Temp. Heat Index Dew Point Humidity Pressure Visibility Wind Dir Wind Speed Gust Speed Precip Events Conditions
12:45 AM 78.8 °F - 75.2 °F 89% 29.90 in 8.0 mi North 5.8 mph - N/A   Partly Cloudy
1:45 AM 78.8 °F - 75.2 °F 89% 29.88 in 8.0 mi North 4.6 mph - N/A   Partly Cloudy
2:45 AM 78.8 °F - 75.2 °F 89% 29.88 in 8.0 mi North 4.6 mph - N/A   Partly Cloudy
2:53 AM 77.0 °F - 75.2 °F 94% 29.88 in 8.0 mi North 4.6 mph - N/A   Partly Cloudy
3:45 AM 77.0 °F - 75.2 °F 94% 29.88 in 8.0 mi North 5.8 mph - N/A   Partly Cloudy
4:45 AM 77.0 °F - 73.4 °F 89% 29.88 in 8.0 mi NNW 5.8 mph - N/A   Partly Cloudy
5:45 AM 76 °F - 74 °F 93% 29.89 in 6 mi WNW 2.2 mph - -   Scattered Clouds
5:45 AM 77.0 °F - 73.4 °F 89% 29.88 in 8.0 mi NNW 5.8 mph - N/A   Partly Cloudy
6:45 AM 77.0 °F - 73.4 °F 89% 29.89 in 8.0 mi North 5.8 mph - N/A   Clear
7:48 AM 78.8 °F - 73.4 °F 83% 29.90 in 8.0 mi North 5.8 mph - N/A   Clear
8:44 AM 80.6 °F 85.4 °F 73.4 °F 79% 29.92 in 8.0 mi Calm Calm - N/A   Clear
8:50 AM 81 °F - 74 °F 75% 29.93 in 12 mi North 2.2 mph - -   Scattered Clouds
9:49 AM 82.4 °F 88.2 °F 73.4 °F 74% 29.93 in 8.0 mi Calm Calm - N/A   Clear
10:45 AM 84.2 °F 90.9 °F 73.4 °F 70% 29.92 in 8.0 mi Calm Calm - N/A   Clear
11:45 AM 87.8 °F 97.6 °F 75.2 °F 66% 29.90 in 8.0 mi South 3.5 mph - N/A   Partly Cloudy
11:48 AM 91 °F - 72 °F 46% 29.90 in 12 mi ENE 4.5 mph - -   Scattered Clouds
12:45 PM 86.0 °F 95.1 °F 75.2 °F 70% 29.87 in 8.0 mi SSE 4.6 mph - N/A   Partly Cloudy
1:45 PM 86.0 °F 93.4 °F 73.4 °F 66% 29.85 in 10.0 mi SSE 5.8 mph - N/A   Clear
2:42 PM 86.0 °F 95.1 °F 75.2 °F 70% 29.86 in 10.0 mi SSW 5.8 mph - N/A   Clear
2:48 PM 90 °F - 74 °F 52% 29.84 in 12 mi South 4.5 mph - -   Scattered Clouds
3:42 PM 86.0 °F 95.1 °F 75.2 °F 70% 29.82 in 10.0 mi SSW 3.5 mph - N/A   Clear
4:42 PM 84.2 °F 92.3 °F 75.2 °F 74% 29.83 in 10.0 mi SSW 4.6 mph - N/A   Clear
5:45 PM 82.4 °F 89.5 °F 75.2 °F 79% 29.83 in 10.0 mi Calm Calm - N/A   Clear
5:50 PM 83 °F - 75 °F 70% 29.85 in 12 mi SW 2.2 mph - -   Scattered Clouds
6:43 PM 80.6 °F 86.2 °F 75.2 °F 84% 29.87 in 8.0 mi Calm Calm - N/A   Clear
7:43 PM 80.6 °F 86.2 °F 75.2 °F 84% 29.90 in 8.0 mi Calm Calm - N/A   Clear
8:43 PM 78.8 °F - 75.2 °F 89% 29.91 in 8.0 mi Calm Calm - N/A   Clear
8:48 PM 79 °F - 75 °F 84% 29.93 in 6 mi North 2.2 mph - -   Scattered Clouds
9:45 PM 80.6 °F 87.1 °F 77.0 °F 89% 29.94 in 8.0 mi North 4.6 mph - N/A   Clear
10:42 PM 78.8 °F - 75.2 °F 89% 29.94 in 8.0 mi North 3.5 mph - N/A   Clear
11:47 PM 78.8 °F - 75.2 °F 89% 29.95 in 8.0 mi North 4.6 mph - N/A   Clear
11:48 PM 78 °F - 75 °F 88% 29.94 in 6 mi NW 4.5 mph - -   Scattered Clouds